Hilton Head Island, SC

2:59 AM EDT on October 18, 2017 (GMT -0400)
Hilton Head

Weather History for KHXD - February, 2013

Change the Weather History Date:

Saturday, February 23, 2013

  Actual Average Record
Temperature  
Mean Temperature 56 °F -  
Max Temperature 62 °F 65 °F 73 °F (2017)
Min Temperature 51 °F 45 °F 44 °F (2014)
Degree Days  
Heating Degree Days 8    
Growing Degree Days 6 (Base 50)    
Moisture  
Dew Point 55 °F    
Average Humidity 99    
Maximum Humidity 100    
Minimum Humidity 94    
Precipitation  
Precipitation 0.53 in - - ()
Sea Level Pressure  
Sea Level Pressure 29.95 in    
Wind  
Wind Speed 5 mph (North)    
Max Wind Speed 12 mph    
Max Gust Speed 18 mph    
Visibility 4 miles    
Events Rain    
Averages and records for this station are not official NWS values.
T = Trace of Precipitation, MM = Missing Value Source: NWS Daily Summary

Daily Weather History Graph

Daily Weather History Graph

Search for Another Location

Airport or City:

Trip Planner

Search our weather history database for the weather conditions in past years. The results will help you decide how hot, cold, wet, or windy it might be!

Date:

Astronomy

Feb. 23, 2013 Rise Set
Actual Time 6:56 AM EST 6:15 PM EST
Civil Twilight 6:32 AM EST 6:40 PM EST
Nautical Twilight 6:03 AM EST 7:09 PM EST
Astronomical Twilight 5:35 AM EST 7:37 PM EST
Moon 4:28 PM EST (2/23) 5:13 AM EST (2/23)
Length of Visible Light 12h 08m
Length of Day
11h 19m
Waxing Gibbous, 95% of the Moon is Illuminated
Feb 23
Waxing Gibbous
Feb 25
Full
Mar 4
Last Quarter
Mar 11
New
Mar 19
First Quarter

Hourly Weather History & Observations

Time (EST) Temp. Dew Point Humidity Pressure Visibility Wind Dir Wind Speed Gust Speed Precip Events Conditions
12:15 AM 53.6 °F 53.6 °F 100% 30.05 in 4.0 mi North 5.8 mph - 0.00 in Rain Light Rain
12:35 AM 51.8 °F 51.8 °F 100% 30.06 in 3.0 mi North 5.8 mph - 0.02 in Rain Rain
12:55 AM 51.8 °F 51.8 °F 100% 30.06 in 3.0 mi NNW 6.9 mph - 0.05 in Rain Light Rain
1:15 AM 51.8 °F 51.8 °F 100% 30.06 in 4.0 mi North 4.6 mph - 0.01 in Rain Light Rain
1:35 AM 51.8 °F 51.8 °F 100% 30.05 in 3.0 mi North 6.9 mph - 0.05 in Rain Rain
1:55 AM 51.8 °F 51.8 °F 100% 30.04 in 5.0 mi North 5.8 mph - 0.08 in Rain Light Rain
2:15 AM 51.8 °F 51.8 °F 100% 30.02 in 5.0 mi North 8.1 mph - 0.01 in Rain Light Rain
2:35 AM 51.8 °F 51.8 °F 100% 30.01 in 5.0 mi North 6.9 mph - 0.01 in Rain Light Rain
2:55 AM 51.8 °F 51.8 °F 100% 30.00 in 4.0 mi North 4.6 mph - 0.03 in Rain Light Rain
3:15 AM 51.8 °F 51.8 °F 100% 29.99 in 5.0 mi North 4.6 mph - 0.02 in Rain Light Rain
3:35 AM 51.8 °F 51.8 °F 100% 29.97 in 3.0 mi NE 5.8 mph - 0.07 in Rain Rain
3:55 AM 51.8 °F 51.8 °F 100% 29.94 in 5.0 mi NE 4.6 mph - 0.09 in   Light Drizzle
4:15 AM 51.8 °F 51.8 °F 100% 29.94 in 8.0 mi NE 3.5 mph - 0.00 in Rain Light Rain
4:35 AM 51.8 °F 51.8 °F 100% 29.95 in 6.0 mi North 3.5 mph - 0.00 in Rain Light Rain
4:55 AM 51.8 °F 51.8 °F 100% 29.95 in 3.0 mi North 5.8 mph - 0.03 in Rain Light Rain
5:15 AM 51.8 °F 51.8 °F 100% 29.95 in 5.0 mi North 6.9 mph - 0.00 in Rain Light Rain
5:35 AM 51.8 °F 51.8 °F 100% 29.94 in 8.0 mi NNE 6.9 mph - 0.01 in   Overcast
6:50 AM 51.8 °F 51.8 °F 100% 29.96 in 1.0 mi North 5.8 mph - N/A   Drizzle
7:50 AM 51.8 °F 51.8 °F 100% 29.96 in 1.0 mi NE 5.8 mph - N/A   Drizzle
8:50 AM 51.8 °F 51.8 °F 100% 29.97 in 2.0 mi Calm Calm - N/A   Drizzle
9:55 AM 53.6 °F 53.6 °F 100% 29.97 in 2.0 mi Calm Calm - N/A Rain Overcast
12:10 PM 55.4 °F 55.4 °F 100% 29.99 in 1.0 mi North 4.6 mph - N/A   Drizzle
12:25 PM 55.4 °F 55.4 °F 100% 29.97 in 2.0 mi Calm Calm - N/A   Drizzle
12:50 PM 57.2 °F 57.2 °F 100% 29.97 in 1.0 mi Calm Calm - N/A   Drizzle
1:50 PM 59.0 °F 59.0 °F 100% 29.95 in 1.5 mi SW 3.5 mph - N/A Rain Light Rain
2:50 PM 60.8 °F 60.8 °F 100% 29.90 in 2.0 mi SSW 5.8 mph - N/A   Mostly Cloudy
3:50 PM 62.6 °F 60.8 °F 94% 29.88 in 3.0 mi SSW 11.5 mph - N/A   Overcast
4:54 PM 62.6 °F 60.8 °F 94% 29.85 in 5.0 mi South 5.8 mph - N/A   Overcast
5:50 PM 62.6 °F 60.8 °F 94% 29.85 in 10.0 mi West 6.9 mph - N/A   Scattered Clouds
6:50 PM 62.6 °F 60.8 °F 94% 29.90 in 10.0 mi WSW 4.6 mph - N/A   Partly Cloudy
7:30 PM 62.6 °F 60.8 °F 94% 29.92 in 5.0 mi WSW 4.6 mph - N/A Rain Heavy Rain
8:15 PM 62.6 °F 62.6 °F 100% 29.93 in 4.0 mi SW 5.8 mph - 0.04 in Rain Light Rain
8:35 PM 62.6 °F 62.6 °F 100% 29.94 in 6.0 mi West 4.6 mph - 0.06 in Rain Light Rain
8:55 PM 57.2 °F 57.2 °F 100% 29.94 in 5.0 mi North 11.5 mph - 0.09 in Rain Rain
9:15 PM 55.4 °F 55.4 °F 100% 29.96 in 3.0 mi North 4.6 mph - 0.05 in Rain Rain
9:35 PM 55.4 °F 55.4 °F 100% 29.95 in 4.0 mi North 3.5 mph - 0.10 in Rain Light Rain
9:55 PM 55.4 °F 55.4 °F 100% 29.95 in 5.0 mi Calm Calm - 0.11 in Rain Light Rain
10:15 PM 55.4 °F 55.4 °F 100% 29.93 in 5.0 mi SE 3.5 mph - 0.00 in Rain Light Rain
10:35 PM 55.4 °F 55.4 °F 100% 29.90 in 4.0 mi ESE 8.1 mph - 0.01 in Rain Light Rain
10:55 PM 57.2 °F 57.2 °F 100% 29.88 in 4.0 mi SE 5.8 mph - 0.02 in Rain Light Rain
11:15 PM 57.2 °F 57.2 °F 100% 29.82 in 3.0 mi SSE 8.1 mph 18.4 mph 0.02 in Rain Light Rain
11:35 PM 59.0 °F 59.0 °F 100% 29.83 in 5.0 mi SSE 3.5 mph - 0.02 in   Light Drizzle
11:55 PM 59.0 °F 59.0 °F 100% 29.84 in 5.0 mi SSE 4.6 mph - 0.02 in   Partly Cloudy